Regional Weather Roundup
Issued by NWS

Home | Current Version | Previous Version | Graphics & Text | Print | Product List | Glossary On
Versions: 1 2 3 4 5 6 7 8 9 10 11 12 13 14 15 16 17 18 19 20 21 22 23 24 25 26 27 28 29 30 31 32 33 34 35 36 37 38 39 40 41 42 43 44 45 46 47 48 49 50
000
ASUS43 KOAX 271902
RWRNE

WEATHER ROUNDUP FOR NEBRASKA
NATIONAL WEATHER SERVICE OMAHA NE
200 PM CDT WED AUG 27 2014

NOTES: SATELLITE DATA IS BEING USED TO AUGMENT CLOUD COVER ABOVE
       12000 FEET.
       "FAIR" INDICATES FEW OR NO CLOUDS BELOW 12,000 FEET WITH NO
       SIGNIFICANT WEATHER AND/OR OBSTRUCTIONS TO VISIBILITY.

  * THESE STATIONS DO NOT REPORT WEATHER SUCH AS RAIN...SNOW OR FOG.

NEZ001>004-019>022-054>056-272000-
NEBRASKA PANHANDLE

CITY           SKY/WX    TMP DP  RH WIND       PRES   REMARKS
SCOTTSBLUFF    TSTM      60  60 100 NW20G25   30.13S VSB 1/4
ALLIANCE       CLOUDY    76  60  57 SE14      30.09F
CHADRON        CLOUDY    75  62  64 N9        30.08F
KIMBALL        CLOUDY    74  57  56 S6        30.12F
SIDNEY         PTSUNNY   77  58  51 S7G17     30.12F
$$

NEZ057>060-069>072-079>082-272000-
SOUTHWEST NEBRASKA

CITY           SKY/WX    TMP DP  RH WIND       PRES   REMARKS
NORTH PLATTE   CLOUDY    73  67  81 E16       30.11F
IMPERIAL       LGT RAIN  75  65  70 SE16      30.09F
LEXINGTON      CLOUDY    72  69  89 E12G17    30.13F
MCCOOK         CLOUDY    78  66  66 SE10      30.09F
OGALLALA       CLOUDY    76  63  64 SE8       30.08F
$$

NEZ005>010-023>029-035>040-094-272000-
NORTH CENTRAL NEBRASKA

CITY           SKY/WX    TMP DP  RH WIND       PRES   REMARKS
VALENTINE      CLOUDY    75  67  76 NE13      30.10F
AINSWORTH      CLOUDY    71  65  82 SE14      30.13S
BROKEN BOW     CLOUDY    72  67  84 SE13      30.13F
O`NEILL        CLOUDY    72  68  88 SE9       30.13F
ORD            CLOUDY    70  65  84 SE12      30.12F
THEDFORD       CLOUDY    74  66  74 SE15G22   30.12F
$$

NEZ041-046>049-061>064-073>077-083>087-272000-
SOUTH CENTRAL NEBRASKA

CITY           SKY/WX    TMP DP  RH WIND       PRES   REMARKS
GRAND ISLAND   PTSUNNY   74  68  81 SE8       30.12F
AURORA         PTSUNNY   77  71  81 SE10      30.12F
HASTINGS       CLOUDY    77  66  68 E13G20    30.12F
HEBRON         CLOUDY    78  68  70 SE6       30.11F
HOLDREGE       PTSUNNY   75  69  81 E13       30.12F
KEARNEY *      PTSUNNY   75  68  78 E16       30.13F
YORK           CLOUDY    75 N/A N/A SE12      30.12F
$$

NEZ011>018-030>034-042>045-272000-
NORTHEAST NEBRASKA

CITY           SKY/WX    TMP DP  RH WIND       PRES   REMARKS
NORFOLK        CLOUDY    71  67  87 SE8       30.12F
ALBION         CLOUDY    71  67  85 SE8       30.11F
BLAIR          CLOUDY    71  69  93 SE10      30.13F
FREMONT        CLOUDY    72  69  91 SE8       30.13S
TEKAMAH        LGT RAIN  72  68  87 S14       30.12F
WAYNE          RAIN      67  66  96 SE7       30.14F
$$

NEZ050>053-065>068-078-088>093-272000-
SOUTHEAST NEBRASKA

CITY           SKY/WX    TMP DP  RH WIND       PRES   REMARKS
LINCOLN        CLOUDY    72  69  90 E13       30.14F
OMAHA EPPLEY   RAIN      70  68  93 S13       30.13F FOG
BEATRICE       CLOUDY    78  72  80 CALM      30.12S
FALLS CITY     CLOUDY    74  70  87 E8        30.12F
NEBRASKA CITY  CLOUDY    71  71 100 E5        30.14S
PLATTSMOUTH    LGT RAIN  69  67  93 CALM      30.16F
$$

NEZ044-045-051>053-067-272000-
OMAHA AREA

CITY           SKY/WX    TMP DP  RH WIND       PRES   REMARKS
OMAHA EPPLEY   RAIN      70  68  93 S13       30.13F FOG
BLAIR          CLOUDY    71  69  93 SE10      30.13F
FREMONT        CLOUDY    72  69  91 SE8       30.13S
MILLARD        LGT RAIN  70  68  94 SE8       30.12F
PLATTSMOUTH    LGT RAIN  69  67  93 CALM      30.16F
WAHOO          CLOUDY    71  67  89 SE13G18   30.13F
$$


USA.gov is the U.S. government's official web portal to all federal, state and local government web resources and services.